Regional Weather Roundup
Issued by NWS

Home | Current Version | Previous Version | Text Only | Print | Product List | Glossary Off
Versions: 1 2 3 4 5 6 7 8 9 10 11 12 13 14 15 16 17 18 19 20 21 22 23 24 25 26 27 28 29 30 31 32 33 34 35 36 37 38 39 40 41 42 43 44 45 46 47 48 49 50

000
ASUS43 KLMK 211302
RWRKY
KENTUCKY REGIONAL WEATHER ROUNDUP
NATIONAL WEATHER SERVICE LOUISVILLE KY
900 AM EDT MON MAY 21 2018

NOTE "FAIR" INDICATES FEW OR NO CLOUDS BELOW 12,000 FEET
WITH NO SIGNIFICANT WEATHER AND/OR OBSTRUCTIONS TO VISIBILITY.

KYZ001>023-026-027-061>063-070>075-211400-
WESTERN AND SOUTH CENTRAL KENTUCKY

CITY           SKY/WX    TMP DP  RH WIND       PRES   REMARKS
PADUCAH        PTSUNNY   70  67  90 CALM      30.07F
HENDERSON      NOT AVBL
OWENSBORO      FAIR      73  67  81 SE7       30.12S
HOPKINSVILLE   NOT AVBL
BOWLING GREEN  FAIR      73  67  81 CALM      30.14R
GLASGOW        NOT AVBL
$$

KYZ024-025-028>034-038-045-046-053-211400-
NORTH CENTRAL KENTUCKY

CITY           SKY/WX    TMP DP  RH WIND       PRES   REMARKS
LOUISVILLE/SDF FAIR      74  66  76 S6        30.14R
LOUISVILLE/LOU FAIR      74  68  81 SW3       30.15R
FORT KNOX      NOT AVBL
$$

KYZ035>037-039>044-047>052-055>060-089>105-211400-
NORTHEAST KENTUCKY

CITY           SKY/WX    TMP DP  RH WIND       PRES   REMARKS
LEXINGTON      FAIR      72  65  78 SW7       30.16R
COVINGTON      PTSUNNY   70  63  78 E5        30.14R
FRANKFORT      FAIR      73  65  75 SW7       30.14R
$$

KYZ054-064>069-076>088-106>120-211400-
SOUTHEAST KENTUCKY

CITY           SKY/WX    TMP DP  RH WIND       PRES   REMARKS
JACKSON        FAIR      71  65  81 SW3       30.18R
LONDON         FAIR      72  66  81 CALM      30.18R
SOMERSET       NOT AVBL
MIDDLESBORO    CLOUDY    65  65 100 CALM      30.21R FOG
MONTICELLO     FAIR      74  66  76 NE8       30.18R
$$





USA.gov is the U.S. government's official web portal to all federal, state and local government web resources and services.